This is the latest recevied weather packets stored in our database for station/object KY4GW. If no packets are shown the sender has not sent any weather packets the latest 10 day(s).
| Time | Temp. | Humidity | Pressure | Rain* | Wind** | Luminosity | Snow |
|---|---|---|---|---|---|---|---|
| 1777859707 | 12.22° C | 60% | 1017.9 hPa | 0 mm | - | 0 W/m² | - |
| 1777859403 | 12.22° C | 58% | 1017.9 hPa | 0 mm | - | 0 W/m² | - |
| 1777859099 | 12.22° C | 64% | 1017.6 hPa | 0 mm | - | 0 W/m² | - |
| 1777858796 | 12.22° C | 64% | 1017.6 hPa | 0 mm | - | 0 W/m² | - |
| 1777858495 | 12.22° C | 62% | 1017.6 hPa | 0 mm | - | 0 W/m² | - |
| 1777858190 | 12.78° C | 58% | 1017.3 hPa | 0 mm | - | 0 W/m² | - |
| 1777857889 | 12.78° C | 61% | 1017.3 hPa | 0 mm | - | 0 W/m² | - |
| 1777857586 | 12.78° C | 56% | 1017.3 hPa | 0 mm | - | 0 W/m² | - |
| 1777857282 | 12.78° C | 57% | 1017.3 hPa | 0 mm | - | 0 W/m² | - |
| 1777856978 | 12.78° C | 57% | 1017.3 hPa | 0 mm | - | 0 W/m² | - |
| 1777856674 | 12.78° C | 54% | 1017.3 hPa | 0 mm | - | 0 W/m² | - |
| 1777856371 | 12.78° C | 56% | 1016.9 hPa | 0 mm | - | 0 W/m² | - |
| 1777856067 | 13.33° C | 54% | 1016.9 hPa | 0 mm | - | 0 W/m² | - |
| 1777855765 | 13.33° C | 53% | 1016.9 hPa | 0 mm | - | 0 W/m² | - |
| 1777855463 | 13.33° C | 57% | 1016.9 hPa | 0 mm | - | 0 W/m² | - |
| 1777855159 | 13.89° C | 58% | 1016.9 hPa | 0 mm | - | 1 W/m² | - |
| 1777854856 | 13.89° C | 51% | 1016.9 hPa | 0 mm | - | 2 W/m² | - |
| 1777854552 | 13.89° C | 56% | 1016.9 hPa | 0 mm | - | 3 W/m² | - |
| 1777854249 | 13.89° C | 53% | 1016.9 hPa | 0 mm | - | 5 W/m² | - |
| 1777853947 | 14.44° C | 54% | 1016.9 hPa | 0 mm | - | 8 W/m² | - |
| 1777853645 | 14.44° C | 48% | 1017.3 hPa | 0 mm | - | 9 W/m² | - |
| 1777853340 | 14.44° C | 47% | 1017.3 hPa | 0 mm | - | 17 W/m² | - |
| 1777853038 | 14.44° C | 53% | 1017.3 hPa | 0 mm | - | 25 W/m² | - |
| 1777852735 | 15° C | 48% | 1016.9 hPa | 0 mm | - | 26 W/m² | - |
| 1777852433 | 15° C | 48% | 1016.9 hPa | 0 mm | - | 19 W/m² | - |
* Rain latest hour (hover to see other rain measurements)
** Current wind speed in m/s (hover to see current wind gust speed)